Philadelphia, PA

7:12 PM EST on December 06, 2019 (GMT -0500)
Philadelphia International

Weather History for KPHL - June, 2019

Change the Weather History Date:

Saturday, June 8, 2019

  Actual Average Record
Temperature  
Mean Temperature 73 °F 71 °F  
Max Temperature 82 °F 81 °F 97 °F (2011)
Min Temperature 63 °F 62 °F 44 °F (1977)
Degree Days  
Heating Degree Days 0 1  
Month to date heating degree days 1 8  
Since 1 June heating degree days 1 8  
Since 1 July heating degree days 4360 4610  
Cooling Degree Days 8 7  
Month to date cooling degree days 61 48  
Year to date cooling degree days 211 139  
Since 1 June cooling degree days 61 48  
Growing Degree Days 23 (Base 50)    
Moisture  
Dew Point 60 °F    
Average Humidity 66    
Maximum Humidity 87    
Minimum Humidity 45    
Precipitation  
Precipitation 0.00 in 0.12 in 2.00 in (1955)
Month to date precipitation 1.06 0.98  
Year to date precipitation 20.34 17.72  
Snow  
Snow 0.00 in 0.00 in 0.00 in ()
Month to date snowfall 0.0 0.0  
Since 1 June snowfall 0.0 0.0  
Since 1 July snowfall 17.1 22.4  
Snow Depth 0.00 in    
Sea Level Pressure  
Sea Level Pressure 30.10 in    
Wind  
Wind Speed 9 mph (ENE)    
Max Wind Speed 20 mph    
Max Gust Speed 24 mph    
Visibility 10 miles    
Events Fog    
T = Trace of Precipitation, MM = Missing Value Source: NWS Daily Summary

Daily Weather History Graph

Daily Weather History Graph

Search for Another Location

Airport or City:

Astronomy

Jun. 08, 2019 Rise Set
Actual Time 5:32 AM EDT 8:27 PM EDT
Civil Twilight 5:00 AM EDT 9:00 PM EDT
Nautical Twilight 4:19 AM EDT 9:41 PM EDT
Astronomical Twilight 3:31 AM EDT 10:28 PM EDT
Moon 10:57 AM EDT (6/8) 12:27 AM EDT (6/8)
Length of Visible Light 16h 00m
Length of Day
14h 55m
Waxing Crescent, 32% of the Moon is Illuminated
Jun 8
Waxing Crescent
Jun 10
First Quarter
Jun 17
Full
Jun 25
Last Quarter
Jul 2
New

Hourly Weather History & Observations

Time (EDT) Temp. Heat Index Dew Point Humidity Pressure Visibility Wind Dir Wind Speed Gust Speed Precip Events Conditions
12:54 AM 68.0 °F - 63.0 °F 84% 30.00 in 10.0 mi Calm Calm - N/A   Mostly Cloudy
1:54 AM 68.0 °F - 62.1 °F 81% 30.00 in 10.0 mi ENE 3.5 mph - N/A   Mostly Cloudy
2:54 AM 66.0 °F - 63.0 °F 90% 30.01 in 10.0 mi Calm Calm - N/A   Overcast
3:54 AM 66.9 °F - 63.0 °F 87% 30.00 in 10.0 mi Calm Calm - N/A   Overcast
4:54 AM 66.0 °F - 61.0 °F 84% 30.02 in 10.0 mi East 3.5 mph - N/A   Mostly Cloudy
5:09 AM 66.0 °F - 62.1 °F 87% 30.03 in 7.0 mi Calm Calm - N/A   Clear
5:22 AM 64.9 °F - 62.1 °F 90% 30.04 in 7.0 mi ESE 4.6 mph - N/A Fog Shallow Fog
5:32 AM 64.9 °F - 62.1 °F 90% 30.04 in 7.0 mi East 3.5 mph - N/A Fog Shallow Fog
5:54 AM 66.0 °F - 63.0 °F 90% 30.05 in 7.0 mi Calm Calm - N/A Fog Shallow Fog
6:46 AM 66.9 °F - 63.0 °F 87% 30.07 in 10.0 mi NE 4.6 mph - N/A   Mostly Cloudy
6:54 AM 68.0 °F - 63.0 °F 84% 30.07 in 10.0 mi NE 6.9 mph - N/A   Mostly Cloudy
7:54 AM 69.1 °F - 64.0 °F 84% 30.09 in 10.0 mi ENE 9.2 mph - N/A   Mostly Cloudy
8:01 AM 69.1 °F - 63.0 °F 81% 30.09 in 9.0 mi NE 10.4 mph - N/A   Overcast
8:07 AM 70.0 °F - 64.0 °F 81% 30.09 in 8.0 mi NE 6.9 mph - N/A   Overcast
8:54 AM 71.1 °F - 62.1 °F 73% 30.09 in 9.0 mi ENE 6.9 mph - N/A   Overcast
9:03 AM 72.0 °F - 62.1 °F 71% 30.09 in 10.0 mi ENE 6.9 mph - N/A   Mostly Cloudy
9:54 AM 73.0 °F - 60.1 °F 64% 30.10 in 10.0 mi East 9.2 mph - N/A   Mostly Cloudy
10:54 AM 77.0 °F - 61.0 °F 58% 30.11 in 10.0 mi East 10.4 mph - N/A   Mostly Cloudy
11:54 AM 78.1 °F - 61.0 °F 56% 30.11 in 10.0 mi East 9.2 mph - N/A   Mostly Cloudy
12:54 PM 79.0 °F - 60.1 °F 52% 30.12 in 10.0 mi East 13.8 mph - N/A   Mostly Cloudy
1:54 PM 80.1 °F 80.6 °F 57.9 °F 47% 30.13 in 10.0 mi ENE 16.1 mph 23.0 mph N/A   Mostly Cloudy
2:54 PM 81.0 °F 81.1 °F 57.9 °F 45% 30.12 in 10.0 mi ENE 13.8 mph 19.6 mph N/A   Mostly Cloudy
3:54 PM 80.1 °F 80.7 °F 59.0 °F 48% 30.13 in 10.0 mi ENE 12.7 mph 19.6 mph N/A   Mostly Cloudy
4:54 PM 79.0 °F - 59.0 °F 50% 30.14 in 10.0 mi ENE 11.5 mph - N/A   Mostly Cloudy
5:54 PM 77.0 °F - 57.9 °F 52% 30.14 in 10.0 mi East 15.0 mph - N/A   Mostly Cloudy
6:54 PM 75.0 °F - 55.0 °F 50% 30.16 in 10.0 mi ENE 12.7 mph - N/A   Mostly Cloudy
7:54 PM 72.0 °F - 51.1 °F 48% 30.17 in 10.0 mi East 16.1 mph - N/A   Mostly Cloudy
8:54 PM 69.1 °F - 53.1 °F 57% 30.18 in 10.0 mi East 13.8 mph - N/A   Mostly Cloudy
9:54 PM 66.9 °F - 52.0 °F 59% 30.19 in 10.0 mi East 9.2 mph - N/A   Mostly Cloudy
10:54 PM 64.0 °F - 52.0 °F 65% 30.20 in 10.0 mi ENE 9.2 mph - N/A   Mostly Cloudy
11:54 PM 63.0 °F - 54.0 °F 72% 30.21 in 10.0 mi ENE 5.8 mph - N/A   Scattered Clouds